TimeEDT,TemperatureF,Dew PointF,Humidity,Sea Level PressureIn,VisibilityMPH,Wind Direction,Wind SpeedMPH,Gust SpeedMPH,PrecipitationIn,Events,Conditions,WindDirDegrees,DateUTC
12:01 AM,57.2,57.2,100,29.83,3.0,ESE,11.5,-,0.01,Rain,Rain,120,2013-10-31 04:01:00
12:34 AM,59.0,59.0,100,29.81,3.0,SSE,8.1,-,0.04,Rain,Light Rain,150,2013-10-31 04:34:00
12:53 AM,59.0,59.0,100,29.79,6.0,SSE,9.2,17.3,0.04,Rain,Light Rain,150,2013-10-31 04:53:00
1:04 AM,59.0,59.0,100,29.79,2.5,SSE,6.9,-,0.04,Rain,Rain,150,2013-10-31 05:04:00
1:09 AM,59.0,59.0,100,29.79,3.0,South,6.9,-,0.05,Rain,Rain,170,2013-10-31 05:09:00
1:24 AM,60.8,60.8,100,29.77,1.8,South,8.1,-,0.15,Rain,Heavy Rain,170,2013-10-31 05:24:00
1:38 AM,60.8,60.8,100,29.77,2.5,South,6.9,-,0.19,Rain,Rain,190,2013-10-31 05:38:00
1:53 AM,61.0,61.0,100,29.77,3.0,SW,6.9,-,0.21,Rain,Rain,220,2013-10-31 05:53:00
2:06 AM,62.6,60.8,94,29.77,2.5,SSW,8.1,-,0.04,Rain,Rain,200,2013-10-31 06:06:00
2:34 AM,62.6,62.6,100,29.76,3.0,SW,11.5,18.4,0.12,Rain,Rain,220,2013-10-31 06:34:00
2:40 AM,62.6,62.6,100,29.75,3.0,SW,11.5,20.7,0.14,Rain,Rain,220,2013-10-31 06:40:00
2:53 AM,62.1,61.0,96,29.75,5.0,SSW,11.5,20.7,0.16,Rain,Rain,210,2013-10-31 06:53:00
3:03 AM,62.6,62.6,100,29.74,2.5,SW,12.7,19.6,0.04,Rain,Rain,220,2013-10-31 07:03:00
3:14 AM,62.6,62.6,100,29.74,3.0,SSW,9.2,-,0.07,Rain,Light Rain,210,2013-10-31 07:14:00
3:22 AM,62.6,62.6,100,29.74,1.8,SSW,9.2,-,0.13,Rain,Heavy Rain,200,2013-10-31 07:22:00
3:32 AM,62.6,62.6,100,29.73,3.0,SSW,9.2,-,0.15,Rain,Light Rain,210,2013-10-31 07:32:00
3:42 AM,62.6,62.6,100,29.73,2.0,SW,10.4,-,0.21,Rain,Heavy Rain,220,2013-10-31 07:42:00
3:46 AM,62.6,62.6,100,29.73,1.2,SW,8.1,-,0.27,Rain,Heavy Rain,220,2013-10-31 07:46:00
3:53 AM,62.1,62.1,100,29.73,1.5,SSW,8.1,-,0.29,Rain,Rain,200,2013-10-31 07:53:00
4:07 AM,62.6,62.6,100,29.72,3.0,SW,17.3,28.8,0.05,Rain,Rain,220,2013-10-31 08:07:00
4:17 AM,62.6,62.6,100,29.72,2.5,SW,10.4,23.0,0.08,Rain,Rain,220,2013-10-31 08:17:00
4:27 AM,62.6,62.6,100,29.72,3.0,SSW,15.0,24.2,0.11,Rain,Rain,210,2013-10-31 08:27:00
4:39 AM,62.6,60.8,94,29.71,2.5,SSW,12.7,23.0,0.16,Rain,Rain,210,2013-10-31 08:39:00
4:45 AM,62.6,60.8,94,29.71,3.0,SSW,13.8,24.2,0.18,Rain,Rain,210,2013-10-31 08:45:00
4:53 AM,62.1,60.1,93,29.70,3.0,SSW,12.7,25.3,0.19,Rain,Rain,210,2013-10-31 08:53:00
5:06 AM,60.8,60.8,100,29.70,3.0,SSW,13.8,21.9,0.03,Rain,Rain,200,2013-10-31 09:06:00
5:20 AM,60.8,60.8,100,29.70,2.5,SSW,13.8,23.0,0.08,Rain,Heavy Rain,200,2013-10-31 09:20:00
5:34 AM,60.8,60.8,100,29.69,3.0,SSW,11.5,24.2,0.13,Rain,Rain,200,2013-10-31 09:34:00
5:53 AM,61.0,61.0,100,29.68,-9999.0,SSW,8.1,18.4,0.18,Rain,Rain,200,2013-10-31 09:53:00
6:07 AM,60.8,60.8,100,29.69,2.5,SSW,8.1,-,0.05,Rain,Rain,210,2013-10-31 10:07:00
6:16 AM,60.8,60.8,100,29.68,3.0,South,6.9,-,0.08,Rain,Rain,190,2013-10-31 10:16:00
6:31 AM,60.8,60.8,100,29.67,2.0,South,9.2,18.4,0.18,Rain,Heavy Rain,190,2013-10-31 10:31:00
6:38 AM,60.8,60.8,100,29.67,1.8,South,15.0,21.9,0.24,Rain,Heavy Rain,190,2013-10-31 10:38:00
6:43 AM,60.8,60.8,100,29.67,1.8,South,13.8,21.9,0.27,Rain,Heavy Rain,190,2013-10-31 10:43:00
6:51 AM,60.8,60.8,100,29.67,2.5,SSW,8.1,21.9,0.30,Rain,Heavy Rain,200,2013-10-31 10:51:00
6:53 AM,60.1,60.1,100,29.67,3.0,SSW,6.9,-,0.31,Rain,Rain,200,2013-10-31 10:53:00
7:09 AM,60.8,60.8,100,29.66,2.0,SSW,9.2,-,0.06,Rain,Heavy Rain,200,2013-10-31 11:09:00
7:18 AM,60.8,60.8,100,29.66,1.8,SSW,6.9,-,0.11,Rain,Heavy Rain,200,2013-10-31 11:18:00
7:29 AM,60.8,60.8,100,29.65,2.0,South,6.9,-,0.15,Rain,Heavy Rain,190,2013-10-31 11:29:00
7:41 AM,60.8,60.8,100,29.65,1.8,South,12.7,16.1,0.21,Rain,Heavy Rain,180,2013-10-31 11:41:00
7:53 AM,60.1,60.1,100,29.64,1.5,South,6.9,-,0.28,Rain,Heavy Rain,180,2013-10-31 11:53:00
8:06 AM,60.8,60.8,100,29.63,2.0,SSW,3.5,-,0.05,Rain,Rain,200,2013-10-31 12:06:00
8:19 AM,60.8,60.8,100,29.63,1.5,West,6.9,-,0.11,Rain,Heavy Rain,270,2013-10-31 12:19:00
8:23 AM,60.8,60.8,100,29.63,1.2,West,5.8,-,0.14,Rain,Heavy Rain,280,2013-10-31 12:23:00
8:31 AM,59.0,59.0,100,29.63,1.5,WSW,5.8,-,0.18,Rain,Heavy Rain,250,2013-10-31 12:31:00
8:46 AM,59.0,59.0,100,29.62,1.2,WSW,6.9,-,0.27,Rain,Heavy Rain,250,2013-10-31 12:46:00
8:53 AM,59.0,59.0,100,29.61,1.2,WSW,8.1,-,0.31,Rain,Heavy Rain,250,2013-10-31 12:53:00
9:12 AM,59.0,59.0,100,29.61,1.5,WSW,4.6,-,0.10,Rain,Heavy Rain,250,2013-10-31 13:12:00
9:26 AM,59.0,59.0,100,29.61,1.2,Calm,Calm,-,0.17,Rain,Heavy Rain,0,2013-10-31 13:26:00
9:39 AM,60.8,60.8,100,29.60,1.8,South,4.6,-,0.23,Rain,Rain,190,2013-10-31 13:39:00
9:53 AM,61.0,61.0,100,29.60,1.8,South,9.2,-,0.25,Rain,Rain,190,2013-10-31 13:53:00
10:10 AM,60.8,60.8,100,29.59,2.5,SSW,9.2,-,0.04,Rain,Rain,200,2013-10-31 14:10:00
10:53 AM,61.0,61.0,100,29.58,4.0,SSW,10.4,17.3,0.10,Rain,Light Rain,200,2013-10-31 14:53:00
11:26 AM,60.8,60.8,100,29.56,5.0,South,8.1,-,0.01,Rain,Light Rain,190,2013-10-31 15:26:00
11:53 AM,61.0,61.0,100,29.55,5.0,SSW,9.2,-,0.02,Rain,Light Rain,200,2013-10-31 15:53:00
12:19 PM,60.8,60.8,100,29.55,4.0,South,9.2,-,0.02,Rain,Light Rain,190,2013-10-31 16:19:00
12:53 PM,61.0,61.0,100,29.52,6.0,South,9.2,-,0.04,Rain,Light Rain,190,2013-10-31 16:53:00
1:48 PM,60.8,60.8,100,29.47,1.8,SSE,10.4,-,0.01,Rain,Light Rain,160,2013-10-31 17:48:00
1:53 PM,61.0,61.0,100,29.47,1.5,South,8.1,-,0.01,Rain,Light Rain,170,2013-10-31 17:53:00
2:03 PM,60.8,60.8,100,29.47,1.0,South,8.1,-,0.04,Rain,Rain,180,2013-10-31 18:03:00
2:18 PM,60.8,60.8,100,29.45,2.0,South,13.8,20.7,0.05,Rain,Light Rain,190,2013-10-31 18:18:00
2:24 PM,60.8,60.8,100,29.44,3.0,South,10.4,20.7,0.05,Rain,Light Rain,190,2013-10-31 18:24:00
2:37 PM,60.8,60.8,100,29.43,8.0,South,12.7,19.6,0.06,Rain,Light Rain,190,2013-10-31 18:37:00
2:53 PM,60.1,60.1,100,29.41,9.0,South,10.4,16.1,0.06,Rain,Light Rain,180,2013-10-31 18:53:00
3:53 PM,60.1,59.0,96,29.36,8.0,South,8.1,17.3,0.01,,Overcast,180,2013-10-31 19:53:00
4:46 PM,59.0,59.0,100,29.32,1.8,South,11.5,-,N/A,,Overcast,170,2013-10-31 20:46:00
4:53 PM,59.0,59.0,100,29.31,1.8,South,10.4,-,N/A,,Overcast,170,2013-10-31 20:53:00
5:00 PM,59.0,59.0,100,29.31,2.0,South,9.2,19.6,N/A,,Overcast,170,2013-10-31 21:00:00
5:17 PM,59.0,59.0,100,29.30,4.0,South,9.2,-,0.00,,Overcast,170,2013-10-31 21:17:00
5:53 PM,59.0,59.0,100,29.26,2.5,SSE,8.1,-,0.00,,Overcast,160,2013-10-31 21:53:00
6:10 PM,59.0,59.0,100,29.25,4.0,SSE,11.5,-,N/A,,Overcast,160,2013-10-31 22:10:00
6:53 PM,59.0,59.0,100,29.22,4.0,South,11.5,-,N/A,,Overcast,170,2013-10-31 22:53:00
7:53 PM,60.1,60.1,100,29.18,10.0,South,11.5,19.6,0.01,,Overcast,190,2013-10-31 23:53:00
8:07 PM,60.8,60.8,100,29.18,10.0,South,10.4,20.7,N/A,,Overcast,190,2013-11-01 00:07:00
8:50 PM,57.2,57.2,100,29.20,9.0,West,24.2,32.2,N/A,,Overcast,260,2013-11-01 00:50:00
8:53 PM,57.9,57.0,97,29.20,9.0,West,23.0,31.1,N/A,,Overcast,260,2013-11-01 00:53:00
9:38 PM,55.4,55.4,100,29.22,10.0,West,15.0,26.5,N/A,,Overcast,280,2013-11-01 01:38:00
9:53 PM,55.9,55.0,97,29.22,10.0,West,17.3,24.2,N/A,,Overcast,270,2013-11-01 01:53:00
10:01 PM,55.4,55.4,100,29.22,6.0,West,19.6,26.5,0.00,Rain,Light Rain,270,2013-11-01 02:01:00
10:10 PM,53.6,53.6,100,29.23,1.8,West,20.7,32.2,0.06,Rain,Heavy Rain,260,2013-11-01 02:10:00
10:17 PM,53.6,53.6,100,29.23,3.0,West,25.3,32.2,0.07,Rain,Light Rain,260,2013-11-01 02:17:00
10:38 PM,53.6,53.6,100,29.27,2.5,West,27.6,34.5,0.15,Rain,Rain,260,2013-11-01 02:38:00
10:46 PM,53.6,53.6,100,29.27,4.0,West,26.5,34.5,0.16,Rain,Rain,260,2013-11-01 02:46:00
10:53 PM,52.0,52.0,100,29.28,4.0,West,21.9,34.5,0.17,Rain,Rain,260,2013-11-01 02:53:00
11:07 PM,51.8,51.8,100,29.29,4.0,West,23.0,29.9,0.04,Rain,Rain,270,2013-11-01 03:07:00
11:26 PM,51.8,51.8,100,29.30,5.0,WSW,18.4,27.6,0.07,Rain,Rain,250,2013-11-01 03:26:00
11:36 PM,51.8,51.8,100,29.30,7.0,WSW,18.4,-,0.08,Rain,Light Rain,250,2013-11-01 03:36:00
11:53 PM,52.0,51.1,97,29.28,9.0,West,13.8,-,0.09,Rain,Light Rain,260,2013-11-01 03:53:00